ANDOYA current weather conditions

sailwx.info

Wind from 150 at 9 knots

Air temperature -2.0° C
Dewpoint -9.0° C

Last reported at 2014-Dec-22 03:50 UTC.
Time now 2014-Dec-22 04:59 UTC

Location: N 69°18' E 016°09'.
View on Google Maps.

See reports from other nearby stations

  
Tides and Currents Weather Stations Pressure Air Temp Water Temp Dewpoint Dewpoint Depression Visibility Wind Speed Wind Dir Waves Ship Positions
date/time (UTC)wind fromknots sea level pressurealtimeterstation pressurevisibilityair tempwater tempwave heightnotes
2014-Dec-22 03:50 150 9 -2.0
2014-Dec-22 02:50 150 9 -2.0
2014-Dec-22 01:50 120 12 -2.0
2014-Dec-22 00:50 140 11 -2.0
2014-Dec-21 23:50 140 11 -2.0
2014-Dec-21 22:50 140 11 -2.0
2014-Dec-21 21:50 140 11 -2.0
2014-Dec-21 20:50 140 12 5.4-2.0
2014-Dec-21 19:50 150 11 5.4-3.0
2014-Dec-21 18:50 170 6 5.4-4.0
2014-Dec-21 17:50 190 5 5.4-7.0
2014-Dec-21 17:20 190 6 5.4-6.0
2014-Dec-21 16:50 200 8 5.4-7.0
2014-Dec-21 16:20 190 6 5.4-7.0
2014-Dec-21 15:50 180 7 5.4-7.0
2014-Dec-21 15:20 170 6 5.4-6.0
2014-Dec-21 14:50 160 6 5.4-4.0
2014-Dec-21 14:20 160 6 5.4-4.0
2014-Dec-21 13:50 170 6 5.4-6.0
2014-Dec-21 13:20 160 6 5.4-6.0
2014-Dec-21 12:50 190 7 5.4-6.0
2014-Dec-21 12:20 190 5 5.4-5.0
2014-Dec-21 11:50 170 6 5.4-7.0
2014-Dec-21 11:20 140 5 5.4-5.0
2014-Dec-21 10:50 110 8 5.4-4.0
2014-Dec-21 10:20 100 8 5.4-5.0
2014-Dec-21 09:50 100 9 5.4-6.0
2014-Dec-21 09:20 090 9 5.4-4.0
2014-Dec-21 08:50 090 9 5.4-4.0
2014-Dec-21 08:20 070 8 5.4-4.0
2014-Dec-21 07:50 060 7 5.4-5.0
2014-Dec-21 07:20 5.4-5.0
2014-Dec-21 06:50 5.4-5.0
2014-Dec-21 06:20 5.4-4.0
2014-Dec-21 05:50 5.4-4.0
2014-Dec-21 05:20 100 7 5.4-1.0
2014-Dec-21 04:50 050 8 5.4-1.0
2014-Dec-21 04:20 030 8 5.4-1.0
2014-Dec-21 03:50 320 5 5.4-1.0
2014-Dec-21 03:20 320 5 5.4-1.0
2014-Dec-21 02:50 290 5 5.4-2.0 Showers in the vicinity.
2014-Dec-21 01:50 280 6 5.4-1.0 Showers in the vicinity.
2014-Dec-21 00:50 200 5 5.4-2.0 Showers in the vicinity.
2014-Dec-20 23:50 080 12 5.4-1.0 Showers in the vicinity.
2014-Dec-20 22:50 330 7 5.4-1.0 Showers in the vicinity.
2014-Dec-20 21:50 210 5 5.4-4.0 Showers in the vicinity.
2014-Dec-20 20:50 220 8 5.4-5.0 Showers in the vicinity.
2014-Dec-20 19:50 180 3 5.4-3.0 Showers in the vicinity.
2014-Dec-20 18:50 070 4 5.4-2.0 Showers in the vicinity.
2014-Dec-20 17:50 200 6 5.4-4.0 Showers in the vicinity.
2014-Dec-20 17:20 190 6 5.4-3.0 Showers in the vicinity.
2014-Dec-20 16:50 230 3 5.4-1.0 Showers in the vicinity.
2014-Dec-20 16:20 270 4 5.4-1.0 Showers in the vicinity.
2014-Dec-20 15:50 270 5 5.4-1.0 Showers in the vicinity.
2014-Dec-20 15:20 300 11 3.2-1.0 Light snow showers.
2014-Dec-20 14:50 250 3 5.4-2.0 Showers in the vicinity.
2014-Dec-20 14:20 320 7 5.4-1.0 Showers in the vicinity.
2014-Dec-20 13:50 300 12 1.1-2.0 Light snow showers.
2014-Dec-20 13:20 310 10 1.1-1.0 Light snow showers.
2014-Dec-20 12:50 300 12 0.2-1.0 Heavy snow showers.
2014-Dec-20 12:20 350 8 5.4-0.0 Light snow showers.
2014-Dec-20 11:50 300 10 5.4-1.0 Showers in the vicinity.
2014-Dec-20 11:20 330 9 0.5-1.0 Snow showers.
2014-Dec-20 10:50 300 10 0.5-2.0 Snow showers.
2014-Dec-20 10:20 210 10 1.6-2.0 Light snow showers.
2014-Dec-20 09:50 230 7 4.3-2.0 Light snow showers.
2014-Dec-20 09:20 220 7 0.3-1.0 Snow showers.
2014-Dec-20 08:50 270 8 0.3-1.0 Snow showers.
2014-Dec-20 08:20 220 10 5.4-2.0
2014-Dec-20 07:50 200 5 5.4-2.0
2014-Dec-20 07:20 5.4-1.0
2014-Dec-20 06:50 300 6 5.4-1.0 Light snow showers.
2014-Dec-20 06:20 340 6 5.4-1.0 Showers in the vicinity.
2014-Dec-20 05:50 250 5 5.4-2.0
2014-Dec-20 05:20 210 6 5.4-2.0
2014-Dec-20 04:50 200 7 5.4-2.0
2014-Dec-20 04:20 210 7 5.4-2.0